Location: Unspecified
(51.6250°N, 0.8230°E)
Time: 05:46:34
(UTC+00:00)

Okean 3 - Visible Passes

Search period start: 19 March 2019 00:00
Search period end: 29 March 2019 00:00
Orbit: 578 x 601 km, 82.5° (Epoch: 18 March)

Date Brightness Start Highest point End Pass type
(mag) Time Alt. Az. Time Alt. Az. Time Alt. Az.
19 Mar 5.2 04:45:12 10° SSE 04:49:08 36° E 04:53:07 10° NNE visible
20 Mar 4.5 04:52:53 10° S 04:57:03 51° E 05:01:15 10° NNE visible
21 Mar 3.8 05:00:43 10° S 05:05:00 74° E 05:09:19 10° NNE visible
22 Mar 6.6 03:34:20 10° ESE 03:36:22 13° E 03:38:25 10° NE visible
22 Mar 3.5 05:08:40 10° SSW 05:12:58 79° W 05:17:19 10° N visible
23 Mar 6.3 03:41:12 10° SE 03:44:09 18° E 03:47:07 10° NE visible
23 Mar 3.6 05:16:45 10° SSW 05:20:59 56° WNW 05:25:15 10° N visible
24 Mar 5.8 03:48:28 10° SE 03:51:59 25° E 03:55:30 10° NNE visible
25 Mar 5.2 03:55:57 10° SSE 03:59:50 34° E 04:03:46 10° NNE visible
26 Mar 4.5 04:03:36 10° SSE 04:07:44 48° E 04:11:54 10° NNE visible
27 Mar 3.8 04:11:23 10° S 04:15:40 69° E 04:19:58 10° NNE visible
28 Mar 6.5 02:45:17 10° ESE 02:47:05 12° E 02:48:52 10° ENE visible
28 Mar 3.4 04:19:19 10° S 04:23:38 85° WNW 04:27:59 10° N visible
